"Pseudo-MPEC" for CAM1515

Created 2020 Mar 1 18:07:11 UT using Find_Orb

Click here for an explanation of pseudo-MPECs

 
 Astrometry: 
     CAM1515 KC2020 02 24.Qbt:/lwoS%Iql@VYT;hf@2Gn[N_3dkmAstrometryL?-\e^+rcTB49
     CAM1515 KC2020 02 24j/NB)p1oredacted;6Cp_Yxar1L=XR\ehGIstg(dPVds_Z^.K[X0B49
     CAM1515 KC2020 02 24:WK3BwclickP!*g@rhDFbeNL;^khx%`Pb?:Vvfir=tsG;n@)8fl#B49
     CAM1515 KC2020 02 24nrrR=;here*CAks)04``)XqW,?r98%HoMtgfor%8(0[JU.-eBG%vB49
     CAM1515 KC2020 02 24+]nig5Ck5+m*Xgr7%!:$VIexplanationfukgBL8ji[W$%]I:BETB49

Station data:
(B49) Paus Observatory, Sabadell  (N41.551035 E2.112500)  Spain.

Orbital elements:  CAM1515
   Perihelion 2020 Mar 4.789491 +/- 35 TT = 18:56:52 (JD 2458913.289491)
Epoch 2020 Feb 25.0 TT = JDT 2458904.5   Earth MOID: 0.0134   Ma: 0.0243
M 353.41156605 +/- 22               (J2000 ecliptic)          AutoNEOCP
n   0.74958084 +/- 0.249            Peri.  184.50160 +/- 58
a   1.20020950 +/- 0.265            Node   340.07950 +/- 51
e   0.1629716 +/- 0.163             Incl.    2.96451 +/- 2.5
P   1.31/480.26d           H 27.4   G  0.15   U 11.8  SR
q 1.00460941 +/- 0.0966    Q 1.39580960 +/- 1.16
From 5 observations 2020 Feb. 24 (29.7 min); mean residual 0".52
Residuals in arcseconds: 
200224 B49  .43+  .36-    200224 B49  .04+  .39-    200224 B49  .39+  .38-    
200224 B49  .17-  .04-    200224 B49  .69-  1.2+    

Ephemerides (geocentric):
Date (UTC) HH   RA              Dec         delta   r     elong  mag " sig PA
---- -- -- --  -------------   -----------  ------ ------ -----  --- ---- ---
2020 03 01 18  10 50 42.331   +02 05 41.89  .01381 1.0048 174.8 18.5  57d  20
2020 03 01 19  10 51 10.448   +01 51 43.10  .01380 1.0048 174.6 18.5  57d  20
2020 03 01 20  10 51 38.609   +01 37 42.84  .01379 1.0048 174.4 18.5  57d  20
2020 03 01 21  10 52 06.814   +01 23 41.15  .01378 1.0048 174.1 18.5  57d  20
2020 03 01 22  10 52 35.063   +01 09 38.05  .01376 1.0047 173.9 18.5  57d  20
2020 03 01 23  10 53 03.355   +00 55 33.60  .01375 1.0047 173.7 18.6  58d  20
2020 03 02 00  10 53 31.690   +00 41 27.83  .01374 1.0047 173.5 18.6  58d  20
2020 03 02 01  10 54 00.068   +00 27 20.77  .01373 1.0047 173.2 18.6  58d  20
2020 03 02 02  10 54 28.488   +00 13 12.47  .01372 1.0047 173.0 18.6  58d  20
2020 03 02 03  10 54 56.952   -00 00 57.04  .01371 1.0047 172.8 18.6  58d  20
2020 03 02 04  10 55 25.458   -00 15 07.71  .01370 1.0047 172.6 18.6  58d  20
2020 03 02 05  10 55 54.005   -00 29 19.52  .01369 1.0047 172.3 18.6  58d  20
2020 03 02 06  10 56 22.595   -00 43 32.41  .01369 1.0047 172.1 18.6  58d  20
2020 03 02 07  10 56 51.227   -00 57 46.35  .01368 1.0047 171.9 18.6  58d  20
2020 03 02 08  10 57 19.900   -01 12 01.30  .01367 1.0047 171.7 18.6  58d  20
2020 03 02 09  10 57 48.615   -01 26 17.22  .01366 1.0047 171.4 18.6  58d  20
2020 03 02 10  10 58 17.370   -01 40 34.06  .01365 1.0047 171.2 18.7  58d  20
2020 03 02 11  10 58 46.167   -01 54 51.79  .01365 1.0047 171.0 18.7  58d  20
2020 03 02 12  10 59 15.004   -02 09 10.37  .01364 1.0047 170.7 18.7  58d  20
2020 03 02 13  10 59 43.881   -02 23 29.74  .01363 1.0047 170.5 18.7  58d  20
2020 03 02 14  11 00 12.799   -02 37 49.88  .01362 1.0047 170.3 18.7  58d  20
2020 03 02 15  11 00 41.757   -02 52 10.74  .01362 1.0046 170.0 18.7  58d  20
2020 03 02 16  11 01 10.755   -03 06 32.27  .01361 1.0046 169.8 18.7  58d  20
2020 03 02 17  11 01 39.792   -03 20 54.44  .01361 1.0046 169.6 18.7  58d  20
2020 03 02 18  11 02 08.868   -03 35 17.20  .01360 1.0046 169.3 18.7  58d  20
2020 03 02 19  11 02 37.984   -03 49 40.51  .01360 1.0046 169.1 18.7  58d  20
2020 03 02 20  11 03 07.138   -04 04 04.32  .01359 1.0046 168.9 18.7  58d  20
2020 03 02 21  11 03 36.331   -04 18 28.59  .01359 1.0046 168.6 18.7  58d  20
2020 03 02 22  11 04 05.562   -04 32 53.29  .01358 1.0046 168.4 18.8  58d  20
2020 03 02 23  11 04 34.831   -04 47 18.36  .01358 1.0046 168.2 18.8  58d  20
2020 03 03 00  11 05 04.139   -05 01 43.76  .01358 1.0046 167.9 18.8  58d  20
2020 03 03 01  11 05 33.484   -05 16 09.45  .01357 1.0046 167.7 18.8  58d  20
2020 03 03 02  11 06 02.866   -05 30 35.38  .01357 1.0046 167.4 18.8  58d  20
2020 03 03 03  11 06 32.285   -05 45 01.52  .01357 1.0046 167.2 18.8  58d  20
2020 03 03 04  11 07 01.742   -05 59 27.81  .01357 1.0046 167.0 18.8  58d  20
2020 03 03 05  11 07 31.235   -06 13 54.21  .01356 1.0046 166.7 18.8  58d  20
2020 03 03 06  11 08 00.764   -06 28 20.68  .01356 1.0046 166.5 18.8  58d  20
2020 03 03 07  11 08 30.329   -06 42 47.17  .01356 1.0046 166.3 18.8  58d  20
2020 03 03 08  11 08 59.930   -06 57 13.64  .01356 1.0046 166.0 18.8  58d  20
2020 03 03 09  11 09 29.567   -07 11 40.05  .01356 1.0046 165.8 18.8  59d  20
2020 03 03 10  11 09 59.239   -07 26 06.35  .01356 1.0046 165.5 18.9  59d  20
2020 03 03 11  11 10 28.947   -07 40 32.50  .01356 1.0046 165.3 18.9  59d  20
2020 03 03 12  11 10 58.689   -07 54 58.45  .01356 1.0045 165.1 18.9  59d  20
2020 03 03 13  11 11 28.465   -08 09 24.16  .01356 1.0045 164.8 18.9  59d  20
2020 03 03 14  11 11 58.276   -08 23 49.58  .01356 1.0045 164.6 18.9  59d  20
2020 03 03 15  11 12 28.121   -08 38 14.67  .01356 1.0045 164.4 18.9  59d  20
2020 03 03 16  11 12 57.999   -08 52 39.39  .01356 1.0045 164.1 18.9  59d  20
2020 03 03 17  11 13 27.911   -09 07 03.70  .01356 1.0045 163.9 18.9  59d  20